When you browse on this site, cookies collect data to enhance your experience and personalize the content and advertising you see.
Visit our Privacy Policy to learn more. By continuing to use the site, you agree to this use of cookies and data.
  • In Germany
  • List of Countries
  • For 7 days
  • Water Temperature
  • Satellite Maps
  • Weather Map
  • Weather Widgets
  • user-avatar
    Login

    Hourly Weather Yulara

    Today, 22 January, Tuesday

    Time Temperature Precipitation Wind Pressure Humidity
    00:00 +37°C° 0 mm 5 mps 714 mmHg 21%
    01:00 +36°C° 0 mm 5 mps 714 mmHg 22%
    02:00 +36°C° 0 mm 6 mps 714 mmHg 24%
    03:00 +35°C° 0 mm 7 mps 714 mmHg 28%
    04:00 +34°C° 0 mm 6 mps 714 mmHg 29%
    05:00 +33°C° 0 mm 6 mps 714 mmHg 31%
    06:00 +33°C° 0 mm 5 mps 714 mmHg 33%
    07:00 +35°C° 0 mm 5 mps 714 mmHg 30%
    08:00 +37°C° 0 mm 5 mps 715 mmHg 27%
    09:00 +40°C° 0 mm 4 mps 715 mmHg 23%
    10:00 +41°C° 0 mm 4 mps 715 mmHg 20%
    11:00 +43°C° 0 mm 4 mps 715 mmHg 17%
    12:00 +44°C° 0 mm 4 mps 714 mmHg 15%
    13:00 +44°C° 0 mm 3 mps 714 mmHg 14%
    14:00 +44°C° 0 mm 3 mps 713 mmHg 14%
    15:00 +44°C° 0 mm 3 mps 713 mmHg 13%
    16:00 +43°C° 0 mm 2 mps 713 mmHg 13%
    17:00 +43°C° 0 mm 2 mps 713 mmHg 12%
    18:00 +43°C° 0 mm 2 mps 713 mmHg 12%
    19:00 +43°C° 0 mm 3 mps 713 mmHg 14%
    20:00 +40°C° 0 mm 3 mps 713 mmHg 16%
    21:00 +39°C° 0 mm 3 mps 713 mmHg 19%
    22:00 +38°C° 0 mm 3 mps 713 mmHg 20%
    23:00 +37°C° 0 mm 2 mps 713 mmHg 21%

    Tomorrow, 23 January, Wednesday

    Time Temperature Precipitation Wind Pressure Humidity
    00:00 +37°C° 0 mm 2 mps 713 mmHg 22%
    01:00 +36°C° 0 mm 2 mps 713 mmHg 23%
    02:00 +36°C° 0 mm 2 mps 713 mmHg 25%
    03:00 +36°C° 0 mm 2 mps 713 mmHg 26%
    04:00 +35°C° 0 mm 2 mps 713 mmHg 28%
    05:00 +35°C° 0 mm 2 mps 713 mmHg 29%
    06:00 +34°C° 0 mm 2 mps 714 mmHg 31%
    07:00 +36°C° 0 mm 4 mps 714 mmHg 26%
    08:00 +40°C° 0 mm 5 mps 715 mmHg 21%
    09:00 +43°C° 0 mm 7 mps 715 mmHg 17%
    10:00 +44°C° 0 mm 7 mps 715 mmHg 15%
    11:00 +45°C° 0 mm 7 mps 714 mmHg 14%
    12:00 +47°C° 0 mm 7 mps 714 mmHg 12%
    13:00 +47°C° 0 mm 6 mps 714 mmHg 12%
    14:00 +47°C° 0 mm 6 mps 713 mmHg 11%
    15:00 +48°C° 0 mm 6 mps 712 mmHg 10%
    16:00 +47°C° 0 mm 6 mps 712 mmHg 10%
    17:00 +47°C° 0 mm 5 mps 712 mmHg 11%
    18:00 +46°C° 0 mm 5 mps 712 mmHg 11%
    19:00 +45°C° 0 mm 5 mps 712 mmHg 12%
    20:00 +43°C° 0 mm 4 mps 712 mmHg 12%
    21:00 +42°C° 0 mm 4 mps 713 mmHg 13%
    22:00 +41°C° 0 mm 5 mps 713 mmHg 14%
    23:00 +40°C° 0 mm 5 mps 713 mmHg 14%

    Day after tomorrow, 24 January, Thursday

    Time Temperature Precipitation Wind Pressure Humidity
    00:00 +40°C° 0 mm 6 mps 713 mmHg 15%
    01:00 +39°C° 0 mm 6 mps 713 mmHg 19%
    02:00 +37°C° 0 mm 5 mps 712 mmHg 22%
    03:00 +36°C° 0 mm 5 mps 712 mmHg 26%
    04:00 +35°C° 0 mm 4 mps 712 mmHg 28%
    05:00 +35°C° 0 mm 4 mps 713 mmHg 30%
    06:00 +34°C° 0 mm 3 mps 713 mmHg 32%
    07:00 +36°C° 0 mm 4 mps 713 mmHg 29%
    08:00 +38°C° 0 mm 4 mps 714 mmHg 26%
    09:00 +42°C° 0 mm 5 mps 714 mmHg 23%
    10:00 +42°C° 0 mm 5 mps 714 mmHg 21%
    11:00 +43°C° 0 mm 5 mps 714 mmHg 19%
    12:00 +45°C° 0 mm 6 mps 713 mmHg 17%
    13:00 +45°C° 0 mm 5 mps 713 mmHg 17%
    14:00 +44°C° 0 mm 4 mps 713 mmHg 17%
    15:00 +44°C° 0 mm 4 mps 712 mmHg 16%
    16:00 +44°C° 0 mm 3 mps 712 mmHg 16%
    17:00 +44°C° 0 mm 3 mps 712 mmHg 15%
    18:00 +44°C° 0 mm 3 mps 712 mmHg 14%
    19:00 +41°C° 0 mm 2 mps 712 mmHg 15%
    20:00 +39°C° 0 mm 2 mps 713 mmHg 17%
    21:00 +37°C° 0 mm 1 mps 713 mmHg 18%
    22:00 +38°C° 0 mm 2 mps 713 mmHg 18%
    23:00 +37°C° 0 mm 3 mps 713 mmHg 17%

    25 January, Friday

    Time Temperature Precipitation Wind Pressure Humidity
    00:00 +37°C° 0 mm 3 mps 712 mmHg 17%
    01:00 +36°C° 0 mm 4 mps 712 mmHg 18%
    02:00 +35°C° 0 mm 4 mps 712 mmHg 19%
    03:00 +34°C° 0 mm 4 mps 711 mmHg 19%
    04:00 +34°C° 0 mm 4 mps 712 mmHg 22%
    05:00 +33°C° 0 mm 3 mps 712 mmHg 24%
    06:00 +33°C° 0 mm 3 mps 712 mmHg 27%
    07:00 +36°C° 0 mm 3 mps 713 mmHg 24%
    08:00 +38°C° 0 mm 4 mps 713 mmHg 22%
    09:00 +42°C° 0 mm 4 mps 714 mmHg 20%
    10:00 +45°C° 0 mm 5 mps 714 mmHg 17%
    11:00 +46°C° 0 mm 6 mps 714 mmHg 14%
    12:00 +48°C° 0 mm 6 mps 713 mmHg 11%
    13:00 +47°C° 0 mm 6 mps 713 mmHg 11%
    14:00 +47°C° 0 mm 6 mps 712 mmHg 12%
    15:00 +47°C° 0 mm 5 mps 712 mmHg 12%
    16:00 +46°C° 0 mm 5 mps 712 mmHg 13%
    17:00 +45°C° 0 mm 4 mps 712 mmHg 13%
    18:00 +44°C° 0 mm 3 mps 712 mmHg 14%
    19:00 +44°C° 0 mm 4 mps 712 mmHg 15%
    20:00 +43°C° 0 mm 4 mps 713 mmHg 15%
    21:00 +42°C° 0 mm 5 mps 713 mmHg 16%
    22:00 +41°C° 0 mm 5 mps 713 mmHg 17%
    23:00 +41°C° 0 mm 5 mps 713 mmHg 17%

    26 January, Saturday

    Time Temperature Precipitation Wind Pressure Humidity
    00:00 +40°C° 0 mm 6 mps 714 mmHg 18%
    01:00 +39°C° 0 mm 5 mps 713 mmHg 21%
    02:00 +37°C° 0 mm 5 mps 713 mmHg 25%
    03:00 +35°C° 0 mm 4 mps 713 mmHg 28%
    04:00 +34°C° 0 mm 4 mps 713 mmHg 31%
    05:00 +34°C° 0 mm 4 mps 713 mmHg 33%
    06:00 +33°C° 0 mm 4 mps 714 mmHg 36%
    07:00 +35°C° 0 mm 4 mps 714 mmHg 31%
    08:00 +37°C° 0 mm 4 mps 714 mmHg 26%
    09:00 +40°C° 0 mm 4 mps 715 mmHg 21%
    10:00 +42°C° 0 mm 3 mps 714 mmHg 19%
    11:00 +42°C° 0 mm 2 mps 714 mmHg 18%
    12:00 +43°C° 0 mm 2 mps 713 mmHg 16%
    13:00 +44°C° 0 mm 1 mps 713 mmHg 16%
    14:00 +44°C° 0 mm 1 mps 712 mmHg 15%
    15:00 +44°C° 0 mm 1 mps 712 mmHg 14%
    16:00 +44°C° 0 mm 1 mps 712 mmHg 15%
    17:00 +44°C° 0 mm 1 mps 712 mmHg 15%
    18:00 +44°C° 0 mm 1 mps 712 mmHg 16%
    19:00 +43°C° 0.2 mm 3 mps 713 mmHg 19%
    20:00 +41°C° 0.2 mm 6 mps 713 mmHg 23%
    21:00 +39°C° 0.2 mm 8 mps 714 mmHg 27%
    22:00 +38°C° 0.1 mm 8 mps 714 mmHg 29%
    23:00 +38°C° 0.1 mm 8 mps 714 mmHg 31%

    27 January, Sunday

    Time Temperature Precipitation Wind Pressure Humidity
    00:00 +37°C° 0.1 mm 9 mps 714 mmHg 32%
    01:00 +35°C° 0.1 mm 8 mps 714 mmHg 36%
    02:00 +33°C° 0.1 mm 7 mps 714 mmHg 40%
    03:00 +32°C° 0.1 mm 6 mps 714 mmHg 43%
    04:00 +30°C° 0.9 mm 7 mps 715 mmHg 45%
    05:00 +29°C° 0.9 mm 7 mps 715 mmHg 48%
    06:00 +28°C° 0.9 mm 8 mps 715 mmHg 50%
    07:00 +29°C° 0 mm 8 mps 716 mmHg 46%
    08:00 +29°C° 0 mm 8 mps 716 mmHg 43%
    09:00 +31°C° 0 mm 8 mps 717 mmHg 39%
    10:00 +33°C° 0.1 mm 7 mps 717 mmHg 36%
    11:00 +34°C° 0.1 mm 6 mps 716 mmHg 32%
    12:00 +36°C° 0.1 mm 5 mps 716 mmHg 29%
    13:00 +36°C° 0 mm 5 mps 716 mmHg 29%
    14:00 +36°C° 0 mm 5 mps 716 mmHg 28%
    15:00 +37°C° 0 mm 5 mps 715 mmHg 28%
    16:00 +36°C° 0 mm 6 mps 715 mmHg 30%
    17:00 +35°C° 0 mm 6 mps 715 mmHg 32%
    18:00 +34°C° 0 mm 6 mps 715 mmHg 34%
    19:00 +33°C° 0 mm 7 mps 716 mmHg 37%
    20:00 +32°C° 0 mm 7 mps 716 mmHg 39%
    21:00 +30°C° 0 mm 7 mps 716 mmHg 42%
    22:00 +30°C° 0 mm 6 mps 716 mmHg 42%
    23:00 +29°C° 0 mm 6 mps 716 mmHg 42%
    Show more